Temperature
23 20 19 20 21 21 22 22 22 23 24 24 23 22 23 23 23 23 23 22 22 22 22 21 21 21 20 20 19 19 19 18 18 17 17 17 17 16 16 16 16 16 16 16
20 20 22 22 23 23 22 22 22 23 24 24 22 22 23 23 23 23 23 22 22 22 21 21 21 20 20 20 19 19 19 18 18 17 17 17 16 16 16 16 16 16 16 16
20 21 23 24 23 23 23 23 23 23 23 23 23 22 22 23 23 23 23 22 22 21 21 20 20 20 20 20 19 19 18 18 18 17 17 16 16 16 16 16 16 16 15 15
21 22 24 24 24 24 23 24 24 24 22 21 22 20 21 21 21 22 22 22 22 21 21 21 20 20 20 19 19 19 18 18 17 17 17 16 16 16 16 16 16 15 15 15
21 23 23 23 24 25 24 24 24 23 22 20 21 20 20 21 21 20 20 21 21 21 21 21 20 20 20 19 19 19 18 18 17 17 16 16 16 16 16 15 15 15 15 15
22 24 24 24 25 25 25 23 22 20 19 20 21 20 20 20 21 20 20 21 21 21 21 20 20 20 19 19 19 18 18 17 17 16 16 16 16 16 15 15 15 15 15 15
22 23 24 25 24 24 23 20 19 19 18 19 21 20 19 20 21 21 20 21 21 21 20 20 20 19 19 19 18 18 17 17 17 16 16 16 16 16 15 15 15 15 15 15
21 21 23 24 24 23 23 21 19 19 19 19 20 20 20 21 21 21 21 21 21 20 20 20 19 19 19 18 18 18 17 17 16 16 16 16 16 15 15 15 15 15 15 15
21 21 24 25 25 24 23 21 20 19 19 19 19 20 20 20 20 20 20 20 20 20 20 19 19 19 19 18 18 18 17 17 16 16 16 16 15 15 15 15 15 15 15 15
22 21 23 24 24 23 22 21 18 18 19 19 19 20 19 19 20 19 19 19 19 19 19 19 19 19 18 18 18 17 17 17 16 16 16 15 15 15 15 15 15 14 14 14
21 20 21 22 23 22 22 21 19 17 17 18 18 18 20 18 18 18 18 19 19 19 19 19 19 18 18 18 17 17 17 16 16 16 16 15 15 15 15 15 14 14 14 14
20 19 19 21 22 23 22 21 19 18 18 17 17 18 19 18 18 18 18 19 19 19 19 19 19 18 18 17 17 17 17 16 16 16 15 15 15 15 14 14 14 14 14 14
20 18 18 19 20 21 21 21 19 17 16 16 17 18 19 18 17 18 18 18 18 18 18 18 18 18 17 17 17 17 17 16 16 16 15 15 15 15 14 14 14 14 14 14
20 17 18 19 19 20 20 20 20 18 17 17 18 18 18 17 17 17 18 18 18 18 17 17 17 17 17 17 17 17 16 16 16 16 15 15 15 15 14 14 14 14 14 14
18 18 19 19 20 20 20 20 20 19 18 18 18 18 17 17 17 17 17 17 17 17 17 17 17 17 17 17 17 16 16 16 16 16 15 15 15 15 14 14 14 14 14 14
16 17 18 19 20 20 20 20 20 19 19 18 18 17 17 17 17 17 17 17 16 16 16 17 17 17 17 17 16 16 16 16 16 15 15 15 15 14 14 14 14 14 14 14
15 16 17 17 19 19 18 19 19 18 18 18 17 17 16 16 16 16 16 16 16 16 16 16 16 17 16 16 16 16 16 16 16 15 15 15 15 14 14 14 14 14 14 13
15 15 14 16 17 17 17 18 19 18 17 17 17 16 16 16 16 16 16 16 16 16 16 16 16 16 16 16 16 16 16 15 15 15 15 15 14 14 14 14 14 14 13 13
15 15 15 15 16 16 17 18 17 17 16 16 16 16 16 16 16 16 16 16 16 16 16 16 16 16 16 16 15 15 15 15 15 15 15 14 14 14 14 14 14 13 13 13
15 14 14 15 16 16 16 17 18 17 15 15 15 15 15 15 14 14 16 16 16 16 16 16 16 16 15 15 15 15 15 15 15 14 14 14 14 14 14 14 14 13 13 13
14 14 14 14 15 15 15 16 17 16 15 15 15 15 15 14 14 15 15 15 15 15 15 15 15 15 15 15 15 14 14 14 14 14 14 14 14 14 14 14 14 13 13 13
13 13 13 13 14 14 15 15 15 14 15 15 15 15 15 15 15 15 15 15 15 15 15 15 15 14 14 14 14 14 14 14 14 14 14 14 13 13 13 13 13 13 13 13
13 13 12 13 13 13 14 14 15 15 14 15 15 15 15 15 14 14 14 14 15 14 14 14 14 14 14 14 14 14 14 14 13 13 13 13 13 13 13 13 13 13 13 13
13 12 12 12 12 13 14 14 15 15 15 15 15 15 15 14 14 14 14 14 14 14 14 14 14 13 13 13 13 13 13 13 13 13 13 13 13 13 13 13 13 13 13 13
12 12 11 12 12 13 14 14 14 15 15 15 15 15 15 14 14 14 13 13 13 13 13 13 13 13 13 13 13 13 13 13 13 13 13 13 13 12 13 13 13 13 13 13
11 11 11 11 12 12 12 13 14 14 14 14 14 14 14 14 14 13 13 13 13 13 13 13 13 13 13 12 12 12 12 12 12 12 12 12 12 12 12 12 12 13 12 12
Wind_Speed
4 4 9 13 12 11 9 7 9 12 8 4 8 10 11 9 9 9 10 11 12 12 11 10 11 11 11 10 10 10 10 8 7 5 5 4 4 3 3 3 5 6 5 5
2 10 16 12 10 10 11 10 11 10 7 4 6 9 8 8 10 11 12 12 12 10 9 10 11 11 10 10 10 9 9 9 8 6 5 4 4 3 4 3 3 5 5 5
11 11 10 10 11 11 12 11 10 9 6 3 2 6 6 6 5 7 9 11 11 13 14 13 12 11 11 11 11 10 8 8 8 7 4 4 3 2 1 2 2 3 5 5
9 12 11 10 11 10 11 11 9 6 3 4 2 4 9 5 4 6 7 8 10 12 12 12 13 12 12 11 10 9 8 8 7 7 7 7 5 4 3 3 3 3 4 4
9 8 10 12 14 11 10 9 6 5 4 3 3 3 7 3 5 7 7 8 9 10 13 13 12 12 12 11 10 10 9 8 7 7 7 7 5 4 2 2 3 2 2 3
12 9 8 10 10 8 7 3 3 3 3 3 5 4 6 5 8 8 8 9 9 10 11 11 10 10 9 9 8 8 8 7 7 7 7 7 6 5 4 3 3 3 2 2
9 10 9 7 7 7 1 3 3 4 3 6 4 2 6 6 5 8 9 10 9 10 11 11 12 11 10 9 9 9 9 8 8 8 7 7 6 6 6 5 4 3 2 2
5 8 7 5 7 7 4 8 7 4 5 5 3 3 5 4 2 3 7 9 10 10 10 12 13 13 11 10 9 9 10 9 9 8 7 6 6 5 4 5 4 4 4 4
6 7 5 5 4 6 4 4 8 7 3 2 3 3 5 3 2 1 3 5 7 8 10 11 11 10 10 10 9 9 9 9 8 8 7 6 6 6 5 5 4 3 3 3
5 4 5 3 1 1 6 5 5 5 4 3 4 3 4 4 3 1 3 5 5 5 6 9 10 10 10 10 9 8 8 9 8 8 7 6 6 6 5 5 4 4 3 3
4 4 5 2 3 4 1 2 4 4 5 5 4 5 4 5 3 2 3 5 5 5 7 8 8 9 9 8 8 7 7 7 7 7 6 6 5 4 4 5 5 4 4 4
3 4 5 7 6 4 4 4 5 4 3 4 4 6 3 3 2 3 4 4 5 5 6 7 8 8 8 8 7 7 7 7 7 7 6 6 5 4 4 5 5 4 4 4
2 4 0 5 5 3 1 2 3 5 4 3 4 5 2 1 2 2 4 4 5 6 6 6 6 8 8 7 7 7 7 7 6 7 7 6 5 5 5 5 4 4 4 4
3 4 6 7 6 3 2 2 1 4 3 4 6 4 3 1 2 1 2 3 6 7 7 6 6 7 7 7 7 7 6 6 6 6 7 6 6 6 6 5 4 4 4 4
4 2 3 4 3 1 1 3 2 2 5 6 6 5 5 4 3 2 3 3 5 6 6 7 7 6 6 7 6 6 6 6 6 6 6 6 6 5 5 4 4 3 3 4
3 1 0 1 1 2 2 3 1 1 2 4 4 2 3 1 3 4 4 5 5 5 6 5 6 5 5 6 6 6 5 5 5 6 6 6 5 5 5 5 4 4 3 3
0 2 1 2 2 2 2 2 1 1 1 4 4 4 1 1 3 4 4 5 5 4 5 5 5 5 5 4 4 6 6 5 5 5 5 5 5 5 5 5 4 4 4 3
4 3 3 1 2 3 5 2 3 4 2 1 2 2 3 3 4 3 4 5 5 4 4 4 4 4 4 4 4 4 4 5 5 4 3 4 5 5 5 4 4 4 4 3
6 6 3 3 3 3 2 2 0 2 1 3 2 2 2 2 3 2 2 3 4 4 4 3 3 3 3 4 4 4 4 4 4 3 3 4 4 5 5 5 5 4 4 4
3 4 4 3 3 4 4 5 4 4 1 3 3 3 3 4 2 2 1 2 3 3 3 2 2 3 3 3 3 4 4 4 3 3 4 4 4 4 6 6 5 4 4 4
2 2 2 2 3 2 4 5 3 3 4 2 1 2 3 2 4 3 2 3 3 3 3 3 3 3 2 3 4 4 3 3 2 2 3 3 3 4 5 5 4 4 4 4
2 2 1 2 2 3 5 3 2 3 2 2 3 3 2 2 2 3 3 4 3 3 3 4 3 2 2 3 5 4 3 3 2 1 1 1 2 3 3 4 4 4 4 4
2 1 2 3 3 2 1 1 2 1 1 1 2 3 3 3 3 2 2 4 4 3 3 3 4 2 1 2 4 4 3 3 2 2 1 1 2 2 2 3 3 3 4 4
3 3 2 1 1 2 1 1 1 1 1 1 3 4 4 4 3 3 3 4 3 3 3 3 4 2 0 1 2 3 3 2 2 2 1 1 1 1 1 2 2 3 4 4
3 3 3 1 2 3 4 3 3 4 4 3 3 3 4 5 3 3 3 4 3 2 2 3 3 3 1 1 1 2 3 3 2 1 1 1 2 2 2 2 3 4 5 6
2 0 1 2 3 1 2 3 2 4 3 3 4 4 3 4 4 3 3 2 3 2 2 3 3 2 1 1 0 1 2 3 3 1 1 2 2 2 2 2 2 4 4 5
Wind_Direction
223 181 227 229 218 223 241 255 269 272 267 235 240 240 236 230 212 205 199 190 189 188 179 165 163 160 157 158 157 158 156 157 149 150 154 155 163 170 172 175 168 168 165 160
269 243 238 237 238 236 242 256 267 281 266 244 253 258 243 220 210 204 196 188 187 176 162 165 163 159 159 162 161 160 161 161 161 164 166 167 163 172 179 182 177 176 171 169
218 241 242 239 245 246 250 240 248 256 284 309 311 299 269 247 222 204 196 184 176 174 171 170 168 164 161 161 163 163 168 166 167 158 141 127 109 97 119 169 189 194 184 180
238 245 249 252 247 235 254 251 241 239 243 269 215 269 277 248 229 204 195 180 180 176 172 172 170 166 167 169 163 161 168 167 166 156 152 153 160 171 188 186 194 201 191 188
240 236 239 246 247 236 242 250 233 226 213 269 279 216 270 234 215 209 191 178 184 177 171 171 169 172 170 168 166 167 166 168 163 158 159 159 165 177 170 165 174 194 206 197
244 250 229 232 250 242 244 301 350 24 70 276 249 208 264 235 213 195 194 185 181 170 166 166 162 161 165 166 165 162 161 166 163 158 158 164 166 164 159 168 181 199 214 218
265 263 252 239 263 282 249 91 21 350 349 256 262 200 253 253 215 191 191 189 180 165 164 161 160 161 163 163 165 165 164 167 169 165 165 170 172 171 176 184 190 194 208 226
228 265 252 240 219 224 223 152 167 204 232 271 313 230 258 261 236 184 180 174 162 162 166 167 169 166 166 165 164 167 169 172 172 172 175 174 172 173 181 188 190 196 209 218
203 245 263 248 224 184 187 189 177 158 205 256 262 264 295 334 14 64 140 145 158 161 163 166 165 164 165 166 170 172 170 171 176 179 177 178 179 178 182 188 190 198 210 212
178 249 276 277 353 320 167 163 102 127 167 240 262 237 237 265 262 246 145 148 157 162 166 166 165 165 166 169 169 168 166 173 176 176 178 182 187 187 184 180 186 197 208 210
169 197 278 306 220 221 112 124 132 143 159 167 233 260 229 210 212 185 172 163 157 157 167 163 166 164 162 160 161 166 169 169 174 176 178 175 182 183 177 179 192 198 201 203
165 156 239 253 250 209 171 173 151 162 222 178 190 253 280 167 153 147 150 150 155 146 150 157 160 159 159 162 164 166 170 173 180 178 174 176 180 183 186 192 199 199 203 208
120 120 240 324 333 353 81 145 143 143 135 174 195 253 287 91 85 114 136 139 130 118 126 142 153 155 160 164 168 172 172 176 175 171 172 176 184 191 198 203 202 199 199 202
108 137 172 206 227 231 274 298 184 138 168 200 209 224 264 235 143 140 137 128 135 130 134 144 153 162 165 166 170 175 176 173 170 172 175 184 195 199 203 204 199 199 195 192
75 154 213 219 231 193 259 278 258 203 185 180 201 201 225 218 191 158 138 115 130 137 144 153 160 164 168 169 170 169 172 173 170 170 180 195 197 195 194 198 199 196 193 198
45 145 235 270 126 79 339 322 284 291 171 162 155 212 264 225 74 91 117 125 132 149 158 150 151 154 163 171 175 172 174 181 171 177 191 194 185 188 196 198 196 197 205 211
63 130 110 258 279 33 305 286 136 111 83 160 177 219 211 118 124 146 147 130 139 155 156 152 155 164 167 167 173 179 183 177 173 186 193 188 183 187 197 195 189 197 208 207
176 158 149 170 43 229 233 246 141 125 68 90 119 154 160 194 184 146 132 134 142 144 148 153 153 158 162 160 158 168 165 160 166 177 186 186 181 184 190 189 198 206 204 207
173 163 149 146 179 225 279 314 125 161 75 14 54 66 71 85 89 52 63 113 146 150 148 156 167 162 150 154 157 144 145 148 157 173 195 194 189 186 184 190 205 209 203 211
100 121 137 146 166 214 250 301 315 122 132 342 62 81 106 90 106 258 313 86 101 114 116 123 119 131 141 154 142 143 144 143 175 204 208 198 192 195 196 200 204 206 206 215
52 57 123 154 184 232 293 319 19 130 228 257 123 120 134 147 193 213 160 118 114 120 119 117 106 104 139 141 131 130 133 165 208 219 209 205 206 204 206 204 207 207 210 214
102 102 122 133 164 248 332 31 106 226 240 181 176 179 183 143 124 130 140 141 121 113 118 116 106 83 105 124 129 145 171 197 185 150 157 198 209 215 215 209 217 212 200 207
75 170 176 174 205 248 280 151 244 165 95 243 189 197 167 141 135 133 146 144 134 133 135 128 125 103 84 136 142 162 202 186 154 136 175 217 224 227 222 218 222 216 206 209
0 18 65 55 283 299 309 358 12 112 127 232 172 173 155 148 143 143 149 146 135 141 148 135 125 123 94 221 173 177 191 167 139 140 223 235 233 265 276 257 225 215 213 212
342 5 19 321 297 347 357 10 25 44 46 58 78 120 145 135 137 147 155 154 151 149 146 137 142 147 191 217 208 188 173 156 142 164 249 250 240 244 268 263 242 224 221 210
329 149 171 240 261 225 285 320 51 64 50 66 82 69 91 114 120 120 140 152 144 139 141 140 144 149 144 102 283 250 202 164 157 173 249 250 250 255 256 253 283 272 247 231
Height
1485 1491 1494 1489 1488 1490 1490 1492 1493 1483 1475 1478 1480 1478 1474 1472 1474 1474 1475 1477 1479 1480 1484 1487 1491 1494 1496 1498 1500 1501 1503 1505 1506 1508 1510 1511 1513 1515 1516 1517 1518 1519 1519 1520
1489 1489 1480 1479 1481 1483 1486 1490 1488 1479 1471 1474 1478 1476 1471 1470 1469 1469 1470 1472 1475 1479 1482 1485 1488 1491 1493 1496 1498 1500 1502 1503 1504 1506 1508 1509 1511 1512 1514 1515 1516 1517 1518 1518
1486 1478 1473 1476 1478 1480 1480 1484 1483 1481 1474 1473 1478 1481 1474 1468 1467 1467 1468 1469 1471 1475 1478 1482 1485 1487 1490 1493 1496 1498 1500 1501 1503 1504 1506 1507 1509 1510 1511 1513 1514 1515 1515 1516
1478 1470 1471 1472 1473 1474 1480 1469 1470 1473 1482 1488 1482 1498 1478 1470 1468 1466 1467 1468 1469 1472 1476 1479 1482 1484 1487 1491 1493 1495 1497 1499 1500 1502 1503 1504 1505 1507 1508 1510 1511 1512 1513 1513
1473 1466 1468 1470 1466 1466 1469 1463 1466 1470 1479 1487 1485 1494 1484 1471 1471 1467 1465 1466 1468 1470 1473 1475 1479 1482 1485 1488 1491 1493 1494 1496 1498 1499 1501 1503 1504 1505 1507 1508 1509 1510 1511 1511
1464 1459 1460 1460 1458 1458 1460 1464 1468 1474 1484 1498 1486 1491 1488 1474 1467 1464 1464 1464 1465 1468 1471 1474 1477 1481 1484 1487 1489 1490 1492 1494 1496 1497 1499 1500 1502 1504 1505 1506 1506 1507 1508 1509
1466 1459 1454 1454 1459 1458 1461 1479 1496 1500 1506 1499 1481 1485 1483 1465 1460 1459 1460 1461 1463 1465 1468 1471 1474 1478 1481 1484 1486 1488 1490 1492 1494 1495 1497 1498 1500 1501 1502 1503 1504 1505 1506 1506
1475 1472 1454 1450 1454 1460 1461 1473 1496 1508 1507 1497 1483 1486 1475 1461 1458 1457 1457 1458 1460 1463 1466 1469 1472 1475 1478 1481 1484 1486 1488 1490 1491 1493 1494 1496 1498 1499 1500 1501 1502 1503 1503 1503
1469 1468 1449 1445 1445 1450 1460 1468 1470 1487 1491 1497 1490 1479 1468 1460 1459 1459 1458 1459 1461 1463 1464 1468 1471 1474 1476 1479 1481 1484 1486 1488 1489 1491 1493 1494 1496 1497 1498 1499 1500 1500 1501 1501
1456 1465 1452 1446 1444 1446 1451 1458 1474 1486 1498 1502 1491 1483 1480 1467 1462 1460 1460 1460 1461 1464 1466 1468 1470 1472 1475 1477 1479 1482 1484 1486 1488 1490 1491 1493 1494 1495 1496 1496 1497 1498 1499 1499
1450 1462 1458 1451 1452 1454 1455 1460 1468 1481 1484 1496 1501 1490 1463 1462 1460 1460 1459 1459 1462 1464 1466 1468 1470 1472 1474 1476 1478 1480 1482 1485 1487 1488 1490 1491 1493 1493 1494 1494 1495 1496 1496 1497
1448 1459 1465 1456 1445 1442 1447 1455 1465 1480 1484 1484 1492 1486 1458 1457 1457 1457 1458 1459 1460 1461 1463 1466 1470 1472 1474 1475 1477 1479 1481 1483 1485 1487 1488 1489 1490 1491 1492 1492 1493 1493 1493 1494
1447 1460 1472 1468 1461 1451 1451 1453 1457 1467 1478 1485 1489 1481 1457 1457 1457 1457 1458 1459 1460 1460 1463 1466 1469 1470 1472 1474 1476 1478 1479 1481 1483 1485 1486 1487 1488 1489 1489 1490 1491 1491 1491 1492
1442 1457 1467 1473 1466 1456 1456 1454 1455 1464 1477 1479 1476 1470 1462 1459 1458 1458 1458 1459 1459 1461 1463 1465 1467 1469 1471 1473 1475 1476 1477 1479 1481 1483 1484 1485 1486 1487 1487 1488 1488 1489 1489 1489
1445 1455 1454 1453 1450 1450 1453 1453 1453 1457 1461 1468 1466 1464 1461 1457 1456 1456 1457 1457 1459 1461 1463 1464 1465 1467 1470 1472 1473 1475 1476 1478 1479 1480 1481 1482 1483 1485 1486 1486 1486 1486 1486 1486
1448 1454 1453 1454 1448 1448 1453 1452 1451 1453 1455 1458 1459 1462 1457 1456 1456 1456 1457 1458 1459 1461 1462 1463 1465 1466 1469 1470 1472 1473 1475 1476 1477 1478 1479 1481 1482 1483 1484 1484 1484 1484 1484 1484
1451 1454 1459 1461 1451 1450 1461 1455 1453 1455 1454 1456 1461 1460 1455 1455 1456 1457 1458 1459 1460 1461 1462 1463 1464 1466 1467 1469 1471 1472 1474 1475 1476 1476 1477 1478 1480 1481 1481 1482 1482 1482 1482 1482
1450 1454 1460 1462 1459 1471 1461 1449 1448 1452 1454 1453 1454 1454 1452 1454 1455 1456 1457 1458 1460 1460 1462 1463 1464 1465 1467 1468 1470 1471 1472 1473 1474 1474 1475 1476 1477 1478 1479 1479 1479 1480 1480 1480
1442 1451 1459 1464 1466 1463 1456 1450 1450 1453 1457 1454 1453 1453 1454 1455 1456 1458 1458 1459 1459 1460 1461 1463 1464 1465 1465 1467 1467 1468 1469 1471 1471 1472 1473 1473 1474 1475 1476 1476 1477 1477 1477 1477
1441 1445 1455 1461 1464 1467 1460 1449 1445 1449 1459 1454 1452 1452 1454 1454 1461 1460 1458 1459 1459 1460 1462 1463 1464 1465 1465 1466 1467 1467 1467 1468 1469 1470 1470 1471 1471 1472 1473 1474 1474 1475 1475 1475
1452 1454 1457 1460 1462 1459 1453 1446 1445 1458 1460 1452 1451 1452 1454 1454 1456 1457 1457 1459 1460 1461 1462 1462 1463 1463 1464 1465 1465 1466 1466 1467 1468 1468 1468 1468 1468 1469 1470 1471 1472 1472 1472 1472
1456 1459 1460 1462 1465 1464 1451 1448 1452 1454 1449 1449 1450 1450 1451 1452 1454 1454 1455 1456 1458 1459 1461 1461 1462 1462 1462 1463 1464 1464 1465 1466 1466 1467 1466 1466 1466 1467 1468 1468 1469 1469 1469 1469
1455 1456 1457 1459 1461 1453 1450 1450 1449 1449 1449 1449 1449 1450 1451 1451 1452 1453 1454 1455 1456 1458 1459 1460 1461 1461 1461 1462 1463 1463 1464 1464 1464 1465 1464 1464 1464 1465 1465 1466 1466 1466 1466 1466
1454 1453 1455 1456 1454 1451 1449 1448 1447 1446 1446 1447 1447 1448 1449 1450 1451 1452 1453 1454 1455 1457 1457 1458 1459 1459 1460 1460 1461 1461 1462 1462 1462 1462 1462 1463 1462 1463 1463 1463 1463 1463 1462 1463
1457 1455 1456 1456 1453 1451 1449 1448 1447 1446 1446 1446 1446 1447 1448 1448 1450 1451 1451 1452 1453 1455 1456 1457 1457 1458 1458 1458 1459 1460 1460 1460 1460 1460 1461 1460 1460 1460 1460 1461 1460 1460 1460 1460
1458 1458 1458 1458 1453 1453 1451 1449 1447 1446 1446 1446 1446 1447 1448 1448 1449 1450 1451 1452 1453 1454 1455 1455 1456 1457 1457 1458 1458 1458 1458 1459 1458 1458 1458 1458 1458 1458 1458 1458 1458 1458 1458 1458